• In Latvia
  • List of Countries
  • For 7 days
  • Water Temperature
  • Satellite Maps
  • Weather Map
  • Weather Widgets
  • user-avatar
    Login

    Hourly Weather Kalgoorlie

    Today, 19 January, Thursday

    Time Temperature Precipitation Wind Pressure Humidity
    00:00 +22°C° 0 mm 6 mps 724 mmHg 71%
    01:00 +22°C° 0 mm 5 mps 724 mmHg 73%
    02:00 +22°C° 0 mm 5 mps 724 mmHg 76%
    03:00 +21°C° 0.1 mm 5 mps 723 mmHg 77%
    04:00 +21°C° 0.1 mm 4 mps 723 mmHg 78%
    05:00 +21°C° 0.1 mm 4 mps 723 mmHg 80%
    06:00 +24°C° 0 mm 3 mps 723 mmHg 74%
    07:00 +25°C° 0 mm 3 mps 723 mmHg 67%
    08:00 +27°C° 0 mm 3 mps 723 mmHg 58%
    09:00 +29°C° 0 mm 4 mps 723 mmHg 52%
    10:00 +32°C° 0 mm 5 mps 723 mmHg 46%
    11:00 +34°C° 0 mm 6 mps 723 mmHg 40%
    12:00 +35°C° 0 mm 7 mps 723 mmHg 37%
    13:00 +35°C° 0 mm 7 mps 723 mmHg 33%
    14:00 +36°C° 0 mm 7 mps 722 mmHg 29%
    15:00 +35°C° 0 mm 7 mps 723 mmHg 27%
    16:00 +35°C° 0 mm 7 mps 723 mmHg 24%
    17:00 +34°C° 0 mm 7 mps 723 mmHg 21%
    18:00 +32°C° 0 mm 8 mps 723 mmHg 26%
    19:00 +28°C° 0 mm 8 mps 724 mmHg 30%
    20:00 +26°C° 0 mm 9 mps 724 mmHg 35%
    21:00 +23°C° 0 mm 9 mps 725 mmHg 42%
    22:00 +22°C° 0 mm 8 mps 725 mmHg 49%
    23:00 +20°C° 0 mm 8 mps 725 mmHg 56%

    Tomorrow, 20 January, Friday

    Time Temperature Precipitation Wind Pressure Humidity
    00:00 +18°C° 0 mm 8 mps 725 mmHg 61%
    01:00 +17°C° 0 mm 7 mps 725 mmHg 66%
    02:00 +16°C° 0 mm 7 mps 725 mmHg 70%
    03:00 +16°C° 0 mm 7 mps 726 mmHg 73%
    04:00 +16°C° 0 mm 6 mps 726 mmHg 76%
    05:00 +15°C° 0 mm 6 mps 726 mmHg 79%
    06:00 +16°C° 0 mm 6 mps 726 mmHg 76%
    07:00 +17°C° 0 mm 6 mps 727 mmHg 72%
    08:00 +19°C° 0 mm 5 mps 727 mmHg 68%
    09:00 +21°C° 0 mm 5 mps 727 mmHg 60%
    10:00 +23°C° 0 mm 5 mps 727 mmHg 51%
    11:00 +26°C° 0 mm 5 mps 727 mmHg 42%
    12:00 +27°C° 0 mm 4 mps 726 mmHg 37%
    13:00 +29°C° 0 mm 4 mps 726 mmHg 32%
    14:00 +30°C° 0 mm 3 mps 725 mmHg 28%
    15:00 +30°C° 0 mm 4 mps 725 mmHg 27%
    16:00 +32°C° 0 mm 4 mps 725 mmHg 27%
    17:00 +32°C° 0 mm 4 mps 724 mmHg 26%
    18:00 +29°C° 0 mm 4 mps 725 mmHg 31%
    19:00 +28°C° 0 mm 5 mps 725 mmHg 37%
    20:00 +26°C° 0 mm 5 mps 725 mmHg 42%
    21:00 +24°C° 0 mm 6 mps 726 mmHg 48%
    22:00 +23°C° 0 mm 7 mps 726 mmHg 55%
    23:00 +22°C° 0 mm 7 mps 726 mmHg 61%

    Day after tomorrow, 21 January, Saturday

    Time Temperature Precipitation Wind Pressure Humidity
    00:00 +22°C° 0 mm 7 mps 726 mmHg 64%
    01:00 +21°C° 0 mm 7 mps 726 mmHg 66%
    02:00 +20°C° 0 mm 6 mps 725 mmHg 68%
    03:00 +20°C° 0 mm 6 mps 725 mmHg 70%
    04:00 +19°C° 0 mm 5 mps 725 mmHg 72%
    05:00 +19°C° 0 mm 5 mps 725 mmHg 75%
    06:00 +20°C° 0 mm 5 mps 725 mmHg 69%
    07:00 +22°C° 0 mm 5 mps 726 mmHg 64%
    08:00 +23°C° 0 mm 5 mps 726 mmHg 58%
    09:00 +26°C° 0 mm 4 mps 726 mmHg 51%
    10:00 +28°C° 0 mm 4 mps 726 mmHg 44%
    11:00 +31°C° 0 mm 3 mps 725 mmHg 38%
    12:00 +32°C° 0 mm 2 mps 725 mmHg 33%
    13:00 +33°C° 0 mm 1 mps 724 mmHg 29%
    14:00 +32°C° 0 mm 0 mps 724 mmHg 24%
    15:00 +32°C° 0 mm 0 mps 723 mmHg 24%
    16:00 +35°C° 0 mm 1 mps 723 mmHg 23%
    17:00 +35°C° 0 mm 1 mps 723 mmHg 22%
    18:00 +34°C° 0 mm 2 mps 723 mmHg 24%
    19:00 +33°C° 0 mm 3 mps 723 mmHg 26%
    20:00 +31°C° 0 mm 3 mps 723 mmHg 28%
    21:00 +30°C° 0 mm 4 mps 724 mmHg 30%
    22:00 +30°C° 0 mm 4 mps 724 mmHg 32%
    23:00 +29°C° 0 mm 5 mps 724 mmHg 34%

    22 January, Sunday

    Time Temperature Precipitation Wind Pressure Humidity
    00:00 +28°C° 0 mm 5 mps 724 mmHg 39%
    01:00 +27°C° 0 mm 5 mps 723 mmHg 45%
    02:00 +27°C° 0 mm 4 mps 723 mmHg 51%
    03:00 +26°C° 0 mm 4 mps 723 mmHg 55%
    04:00 +26°C° 0 mm 4 mps 723 mmHg 58%
    05:00 +25°C° 0 mm 3 mps 723 mmHg 61%
    06:00 +27°C° 0 mm 4 mps 723 mmHg 55%
    07:00 +28°C° 0 mm 5 mps 724 mmHg 50%
    08:00 +30°C° 0 mm 5 mps 724 mmHg 44%
    09:00 +33°C° 0 mm 5 mps 724 mmHg 39%
    10:00 +35°C° 0 mm 5 mps 724 mmHg 33%
    11:00 +37°C° 0 mm 5 mps 723 mmHg 28%
    12:00 +39°C° 0 mm 5 mps 723 mmHg 26%
    13:00 +40°C° 0 mm 4 mps 722 mmHg 24%
    14:00 +41°C° 0 mm 4 mps 722 mmHg 22%
    15:00 +40°C° 0 mm 4 mps 722 mmHg 25%
    16:00 +39°C° 0 mm 5 mps 722 mmHg 29%
    17:00 +36°C° 0 mm 5 mps 721 mmHg 32%
    18:00 +35°C° 0.1 mm 5 mps 722 mmHg 35%
    19:00 +34°C° 0.1 mm 5 mps 723 mmHg 37%
    20:00 +33°C° 0.1 mm 5 mps 723 mmHg 40%
    21:00 +30°C° 0 mm 6 mps 723 mmHg 47%
    22:00 +27°C° 0 mm 7 mps 724 mmHg 54%
    23:00 +23°C° 0 mm 9 mps 724 mmHg 60%

    23 January, Monday

    Time Temperature Precipitation Wind Pressure Humidity
    00:00 +22°C° 0 mm 9 mps 724 mmHg 63%
    01:00 +21°C° 0 mm 8 mps 724 mmHg 66%
    02:00 +20°C° 0 mm 8 mps 724 mmHg 69%
    03:00 +18°C° 0 mm 8 mps 725 mmHg 71%
    04:00 +18°C° 0 mm 8 mps 725 mmHg 72%
    05:00 +17°C° 0 mm 7 mps 726 mmHg 74%
    06:00 +18°C° 0 mm 7 mps 727 mmHg 70%
    07:00 +18°C° 0 mm 7 mps 727 mmHg 66%
    08:00 +20°C° 0 mm 6 mps 728 mmHg 62%
    09:00 +22°C° 0 mm 6 mps 728 mmHg 55%
    10:00 +24°C° 0 mm 6 mps 728 mmHg 48%
    11:00 +27°C° 0 mm 6 mps 728 mmHg 41%
    12:00 +29°C° 0 mm 6 mps 728 mmHg 37%
    13:00 +30°C° 0 mm 6 mps 727 mmHg 34%
    14:00 +33°C° 0 mm 5 mps 727 mmHg 30%
    15:00 +33°C° 0 mm 5 mps 727 mmHg 29%
    16:00 +33°C° 0 mm 6 mps 727 mmHg 27%
    17:00 +33°C° 0 mm 6 mps 727 mmHg 25%
    18:00 +30°C° 0 mm 7 mps 728 mmHg 29%
    19:00 +28°C° 0 mm 8 mps 729 mmHg 32%
    20:00 +26°C° 0 mm 8 mps 730 mmHg 36%
    21:00 +23°C° 0 mm 9 mps 730 mmHg 41%
    22:00 +22°C° 0 mm 9 mps 731 mmHg 46%
    23:00 +19°C° 0 mm 9 mps 731 mmHg 51%

    24 January, Tuesday

    Time Temperature Precipitation Wind Pressure Humidity
    00:00 +18°C° 0 mm 8 mps 731 mmHg 55%
    01:00 +18°C° 0 mm 8 mps 731 mmHg 60%
    02:00 +17°C° 0 mm 7 mps 731 mmHg 64%
    03:00 +16°C° 0 mm 7 mps 732 mmHg 66%
    04:00 +15°C° 0 mm 6 mps 732 mmHg 69%
    05:00 +15°C° 0 mm 6 mps 732 mmHg 71%
    06:00 +16°C° 0 mm 6 mps 733 mmHg 67%
    07:00 +16°C° 0 mm 7 mps 733 mmHg 63%
    08:00 +17°C° 0 mm 7 mps 734 mmHg 58%
    09:00 +21°C° 0 mm 7 mps 734 mmHg 50%
    10:00 +23°C° 0 mm 7 mps 733 mmHg 42%
    11:00 +26°C° 0 mm 6 mps 733 mmHg 33%
    12:00 +28°C° 0 mm 6 mps 732 mmHg 30%
    13:00 +29°C° 0 mm 6 mps 732 mmHg 26%
    14:00 +32°C° 0 mm 5 mps 731 mmHg 23%
    15:00 +32°C° 0 mm 5 mps 731 mmHg 22%
    16:00 +32°C° 0 mm 6 mps 731 mmHg 22%
    17:00 +32°C° 0 mm 6 mps 731 mmHg 21%
    18:00 +29°C° 0 mm 5 mps 732 mmHg 24%
    19:00 +28°C° 0 mm 5 mps 732 mmHg 27%
    20:00 +26°C° 0 mm 4 mps 733 mmHg 30%
    21:00 +25°C° 0 mm 5 mps 733 mmHg 32%
    22:00 +23°C° 0 mm 5 mps 733 mmHg 34%
    23:00 +23°C° 0 mm 5 mps 733 mmHg 37%
    Show more